[[{"header":{"parameterUnit":"m.s-1","parameterCategory":2,"la1":30.2991,"la2":30.254,"lo1":-89.0895,"lo2":-89.0444,"dy":0.0017,"dx":0.0017,"nx":28,"ny":28,"refTime":"2025-03-07T03:00:00:Z","depth":"0","parameterNumber":2,"parameterNumberName":"U-component_of_CURRENTS"},"data":[0,0,0,0,0,0,0,0,0,0,0,0,0,0,0,0,0,0,0,0,0,0,0,0,0,0,0,0,0,0,0,0,0,0,0,0,0,0,0,0,0,0,0,0,0,0,0,0,0,0,0,0,0,0,0,0,0,0,-0.2954,-0.2955,0,-0.2981,-0.2981,-0.2981,-0.295,-0.2949,-0.2949,-0.2948,-0.2912,-0.2912,-0.2912,0,0,0,0,0,0,0,0,0,0,0,0,0,-0.2867,-0.2868,-0.2954,-0.2955,-0.2955,-0.2981,-0.2981,-0.2981,-0.2951,-0.2949,-0.2948,-0.2947,-0.2912,-0.2912,-0.2912,0,0,0,0,0,0,0,0,0,0,0,0,0,-0.2897,-0.2869,-0.2954,-0.2945,-0.2945,-0.2981,-0.2981,-0.2981,-0.2951,-0.2949,-0.2948,-0.2947,-0.2912,-0.2912,-0.2912,-0.2937,0,0,-0.2911,-0.2911,0,0,0,0,0,0,0,0,-0.2896,-0.29,-0.2946,-0.2946,-0.2946,-0.2964,-0.2938,-0.2965,-0.2951,-0.2945,-0.2948,-0.2946,-0.2927,-0.2925,-0.293,-0.2936,-0.2934,-0.2911,-0.2911,-0.2911,-0.2911,0,0,0,0,0,0,0,-0.2894,-0.2899,-0.2962,-0.2947,-0.2947,-0.2937,-0.294,-0.2943,-0.2939,-0.2946,-0.2944,-0.2953,-0.2925,-0.293,-0.2928,-0.2934,-0.2911,-0.2911,-0.2911,-0.2911,-0.2943,-0.2944,0,0,0,0,0,0,-0.2899,-0.2897,-0.2961,-0.2963,-0.292,-0.294,-0.2943,-0.2957,-0.2941,-0.2939,-0.2954,-0.2951,-0.2931,-0.2929,-0.2927,-0.2942,-0.2911,-0.2911,-0.2911,-0.2942,-0.2943,-0.2944,0,0,0,0,0,0,-0.2897,-0.2905,-0.296,-0.2932,-0.2939,-0.2944,-0.2959,-0.2958,-0.2958,-0.2948,-0.2944,-0.2954,-0.293,-0.2927,-0.293,-0.2941,-0.2911,-0.2911,-0.2941,-0.2942,-0.2943,-0.2982,0,0,0,0,0,0,-0.2895,-0.2904,-0.2909,-0.2933,-0.2941,-0.2984,-0.2961,-0.296,-0.2967,-0.2963,-0.2947,-0.2943,-0.2929,-0.2931,-0.293,-0.294,-0.291,-0.2939,-0.2941,-0.2943,-0.2979,-0.2984,-0.2988,0,0,0,0,0,-0.2891,-0.2906,-0.291,-0.2917,-0.2951,-0.2985,-0.2988,-0.2984,-0.2968,-0.2976,-0.2963,-0.2943,-0.2941,-0.2932,-0.293,-0.2941,-0.2938,-0.2941,-0.2943,-0.2977,-0.2983,-0.2988,0,0,0,0,0,0,-0.2864,-0.2905,-0.2909,-0.2933,-0.296,-0.2981,-0.2985,-0.2988,-0.2986,-0.2976,-0.2958,-0.2954,-0.2962,-0.295,-0.294,-0.2956,-0.2936,-0.2938,-0.2962,-0.2968,-0.2973,-0.2959,-0.291,0,0,0,0,0,-0.2866,-0.2885,-0.2925,-0.294,-0.2956,-0.2971,-0.2981,-0.2987,-0.2993,-0.299,-0.2982,-0.2972,-0.2974,-0.2968,-0.297,-0.2979,-0.2946,-0.2985,-0.2989,-0.2993,-0.2983,-0.2949,-0.2948,-0.2951,-0.2951,-0.2951,0,0,-0.2856,-0.2882,-0.2891,-0.2935,-0.295,-0.2981,-0.2973,-0.2996,-0.3012,-0.2988,-0.2995,-0.2992,-0.2982,-0.2993,-0.2995,-0.298,-0.2978,-0.2996,-0.2999,-0.2986,-0.2951,-0.295,-0.295,-0.2952,-0.2952,-0.2952,0,0,-0.2856,-0.2875,-0.2896,-0.2926,-0.2964,-0.2981,-0.2991,-0.3021,-0.3021,-0.3042,-0.3026,-0.3026,-0.3031,-0.3023,-0.302,-0.3052,-0.3009,-0.3057,-0.3061,-0.3029,-0.3028,-0.3027,-0.299,-0.2985,-0.3052,-0.3052,-0.3052,0,-0.2842,-0.2875,-0.2905,-0.2939,-0.2958,-0.2984,-0.301,-0.3029,-0.3053,-0.305,-0.3047,-0.3046,-0.3044,-0.3043,-0.3057,-0.3061,-0.3031,-0.304,-0.3033,-0.3031,-0.3029,-0.2991,-0.2985,-0.3054,-0.3054,-0.3054,-0.3054,0,-0.2864,-0.2891,-0.2906,-0.2956,-0.2984,-0.301,-0.305,-0.3066,-0.3071,-0.3081,-0.3085,-0.3083,-0.3072,-0.3084,-0.3081,-0.3071,-0.3052,-0.3047,-0.3015,-0.3031,-0.2991,-0.2983,-0.3057,-0.3057,-0.3056,-0.3056,0,0,-0.282,-0.2905,-0.2906,-0.2928,-0.2993,-0.3014,-0.305,-0.3079,-0.3083,-0.3103,-0.3097,-0.3112,-0.3099,-0.3095,-0.309,-0.3069,-0.3042,-0.3053,-0.305,-0.3008,-0.2961,-0.2873,-0.2856,-0.3032,-0.3031,-0.303,-0.294,0,-0.2819,-0.2877,-0.2922,-0.2961,-0.2989,-0.303,-0.3058,-0.3088,-0.3103,-0.3109,-0.3105,-0.3105,-0.3108,-0.3099,-0.3082,-0.3059,-0.3024,-0.3066,-0.2958,-0.2954,-0.2867,-0.2845,-0.2729,-0.2632,-0.2933,-0.2931,-0.293,0,-0.2814,-0.2853,-0.2897,-0.2956,-0.297,-0.2997,-0.3025,-0.3058,-0.3085,-0.3094,-0.3092,-0.3093,-0.308,-0.3076,-0.3018,-0.3043,-0.2999,-0.2974,-0.2969,-0.2864,-0.2852,-0.2664,-0.2607,-0.2586,-0.2919,-0.292,-0.2921,0,-0.2747,-0.2825,-0.2851,-0.2877,-0.2956,-0.2965,-0.2998,-0.3037,-0.3051,-0.3074,-0.3075,-0.3068,-0.3051,-0.301,-0.2974,-0.2988,-0.2897,-0.2908,-0.278,-0.2774,-0.2639,-0.2621,-0.2536,-0.2839,-0.2839,-0.2839,-0.284,0,-0.2719,-0.2733,-0.282,-0.2833,-0.2845,-0.292,-0.2927,-0.2962,-0.3003,-0.3004,-0.305,-0.3033,-0.3031,-0.2991,-0.2957,-0.2839,-0.2875,-0.276,-0.2735,-0.265,-0.2636,-0.2583,-0.2622,-0.2836,-0.2837,-0.2838,-0.2838,0,-0.2629,-0.2698,-0.2722,-0.2798,-0.2813,-0.2816,-0.2877,-0.2884,-0.2943,-0.2943,-0.2948,-0.2988,-0.2931,-0.2914,-0.2844,-0.2793,-0.2655,-0.2657,-0.2556,-0.252,-0.2368,-0.2414,-0.2305,-0.2237,-0.2486,-0.2484,-0.2481,0,-0.2586,-0.2593,-0.2663,-0.2667,-0.2694,-0.272,-0.2732,-0.2822,-0.2837,-0.2898,-0.2883,-0.2864,-0.2809,-0.2694,-0.2603,-0.2494,-0.2523,-0.2336,-0.2337,-0.2319,-0.2354,-0.2403,-0.2358,-0.2181,-0.2176,-0.2172,-0.2169,0,-0.2479,-0.2507,-0.2526,-0.2542,-0.2556,-0.2575,-0.261,-0.2619,-0.2714,-0.2726,-0.2719,-0.2686,-0.259,-0.2433,-0.2319,-0.2247,-0.228,-0.2251,-0.2253,-0.2111,-0.2138,-0.2072,-0.2297,-0.2135,-0.2139,-0.2141,-0.2143,-0.2144,-0.2374,-0.2357,-0.2386,-0.238,-0.2403,-0.2399,-0.2365,-0.2433,-0.2436,-0.2438,-0.2498,-0.2418,-0.2323,-0.213,-0.2054,-0.1903,-0.1995,-0.1854,-0.1912,-0.1965,-0.1888,-0.2033,-0.1836,-0.1837,-0.1839,-0.184,-0.1841,0,-0.2224,-0.2222,-0.2219,-0.2211,-0.2169,-0.2236,-0.2248,-0.2196,-0.2156,-0.2202,-0.2173,-0.2077,-0.1917,-0.1855,-0.1704,-0.1609,-0.1584,-0.1588,-0.164,-0.1608,-0.1727,-0.1702,-0.1441,-0.1441,-0.1441,-0.1441,-0.1441,-0.1441,-0.2147,-0.2086,-0.2086,-0.1966,-0.1957,-0.1853,-0.1824,-0.1796,-0.1788,-0.17,-0.1689,-0.1679,-0.1672,-0.1753,-0.1602,-0.1509,-0.1494,-0.1442,-0.1489,-0.1602,-0.1632,-0.1662,-0.1644,-0.1376,-0.1376,-0.1293,-0.1292,-0.1292]},{"header":{"parameterUnit":"m.s-1","parameterCategory":2,"la1":30.2991,"la2":30.254,"lo1":-89.0895,"lo2":-89.0444,"dy":0.0017,"dx":0.0017,"nx":28,"ny":28,"refTime":"2025-03-07T03:00:00:Z","depth":"0","parameterNumber":3,"parameterNumberName":"V-component_of_CURRENTS"},"data":[0,0,0,0,0,0,0,0,0,0,0,0,0,0,0,0,0,0,0,0,0,0,0,0,0,0,0,0,0,0,0,0,0,0,0,0,0,0,0,0,0,0,0,0,0,0,0,0,0,0,0,0,0,0,0,0,0,0,-0.0249,-0.0248,0,-0.0166,-0.0165,-0.0164,-0.0103,-0.0103,-0.0103,-0.0102,0.0013,0.0016,0.0019,0,0,0,0,0,0,0,0,0,0,0,0,0,-0.0291,-0.0291,-0.0249,-0.0248,-0.0247,-0.0166,-0.0165,-0.0164,-0.0103,-0.0103,-0.0103,-0.0102,0.0012,0.0016,0.0019,0,0,0,0,0,0,0,0,0,0,0,0,0,-0.0246,-0.0291,-0.0249,-0.0209,-0.0204,-0.0167,-0.0165,-0.0163,-0.0104,-0.0103,-0.0102,-0.0102,0.0011,0.0015,0.0019,0.0033,0,0,0.0032,0.0034,0,0,0,0,0,0,0,0,-0.0249,-0.0244,-0.0215,-0.0211,-0.0206,-0.0146,-0.0138,-0.0097,-0.0104,-0.014,-0.0102,-0.0102,-0.0038,-0.003,-0.0014,0.0039,0.0044,0.0032,0.0035,0.0036,0.0038,0,0,0,0,0,0,0,-0.0252,-0.0247,-0.0215,-0.0215,-0.0209,-0.0173,-0.0166,-0.0129,-0.0092,-0.0137,-0.0133,-0.0126,-0.0035,-0.0018,-0.0011,0.0045,0.0032,0.0036,0.0038,0.004,0.0134,0.0134,0,0,0,0,0,0,-0.0269,-0.0251,-0.0217,-0.0212,-0.0228,-0.0173,-0.0165,-0.0165,-0.0093,-0.0082,-0.0127,-0.0124,-0.0026,-0.0016,-0.0007,0.0021,0.0036,0.004,0.0043,0.0134,0.0134,0.0134,0,0,0,0,0,0,-0.0271,-0.0267,-0.0221,-0.023,-0.0222,-0.0173,-0.0173,-0.0163,-0.0146,-0.0086,-0.0074,-0.012,-0.0025,-0.0012,0.0027,0.0026,0.0042,0.0046,0.0134,0.0134,0.0134,0.0072,0,0,0,0,0,0,-0.0272,-0.0269,-0.0275,-0.0232,-0.0222,-0.0206,-0.0173,-0.0162,-0.0144,-0.0139,-0.0075,-0.0064,-0.0023,0.0021,0.0031,0.0032,0.0049,0.0134,0.0134,0.0134,0.0074,0.007,0.0066,0,0,0,0,0,-0.0274,-0.029,-0.0276,-0.0272,-0.0233,-0.0207,-0.0199,-0.0161,-0.0144,-0.0142,-0.0095,-0.0066,0.0029,0.0024,0.0036,0.0038,0.0134,0.0134,0.0134,0.0075,0.007,0.0066,0,0,0,0,0,0,-0.0313,-0.0284,-0.0268,-0.0275,-0.0246,-0.0198,-0.0194,-0.0167,-0.0129,-0.0124,-0.0065,-0.005,-0.0015,0.0019,0.0012,0.0066,0.0086,0.0089,0.0037,0.0033,0.0029,0.0011,0.0052,0,0,0,0,0,-0.0326,-0.033,-0.0292,-0.0297,-0.0287,-0.0242,-0.0227,-0.0202,-0.0162,-0.0144,-0.0099,-0.005,-0.0006,0.0018,0.006,0.0088,0.0128,0.0097,0.0093,0.009,0.0084,0.0138,0.0138,0.0135,0.0135,0.0135,0,0,-0.0342,-0.0328,-0.0328,-0.0306,-0.028,-0.0274,-0.0231,-0.0216,-0.0205,-0.0138,-0.0111,-0.0062,-0.0001,0.0033,0.0051,0.0061,0.0115,0.009,0.0086,0.0083,0.0138,0.0138,0.0138,0.0135,0.0135,0.0135,0,0,-0.0381,-0.0363,-0.038,-0.0362,-0.0334,-0.0303,-0.0303,-0.0258,-0.0232,-0.0201,-0.0147,-0.01,-0.0039,0.0009,0.004,0.004,0.0092,0.0052,0.002,0.0072,0.0072,0.0073,0.0133,0.014,0.0051,0.0051,0.0051,0,-0.0401,-0.0417,-0.038,-0.0391,-0.0382,-0.0322,-0.0335,-0.0299,-0.0245,-0.0224,-0.0203,-0.01,-0.0049,0.0002,0.0005,0.0031,0.007,0.003,0.0066,0.0068,0.007,0.0131,0.0139,0.0048,0.0048,0.0048,0.0049,0,-0.0451,-0.0461,-0.047,-0.0462,-0.0445,-0.0446,-0.0396,-0.0371,-0.0331,-0.0289,-0.0233,-0.0155,-0.0095,-0.0069,-0.003,0.001,0.0037,0.0053,0.0073,0.0066,0.0132,0.0141,0.0043,0.0044,0.0045,0.0046,0,0,-0.0503,-0.0506,-0.0509,-0.0521,-0.0485,-0.0479,-0.0457,-0.0419,-0.0402,-0.0336,-0.0307,-0.022,-0.0171,-0.0132,-0.0071,-0.0023,0.0033,0.0014,0.0018,0.0066,0.0153,0.0215,0.0233,0.0051,0.0052,0.0053,0.0196,0,-0.0553,-0.0601,-0.0577,-0.0607,-0.0625,-0.0564,-0.055,-0.0504,-0.0445,-0.04,-0.0306,-0.0255,-0.0196,-0.0165,-0.0106,-0.0002,0.0054,-0.0007,0.016,0.0165,0.0215,0.0244,0.0288,0.0423,0.0206,0.0208,0.0209,0,-0.061,-0.0636,-0.0684,-0.0687,-0.0688,-0.0687,-0.0648,-0.0625,-0.0538,-0.0492,-0.0415,-0.0337,-0.0242,-0.02,-0.0025,-0.0068,0.0033,0.0114,0.0122,0.0207,0.0245,0.0395,0.0449,0.0614,0.0224,0.0223,0.0222,0,-0.0679,-0.0706,-0.0751,-0.0753,-0.0744,-0.0744,-0.0726,-0.0657,-0.0636,-0.0547,-0.0514,-0.0391,-0.032,-0.0188,-0.0003,-0.0019,0.0191,0.0193,0.0349,0.0355,0.0439,0.0451,0.0666,0.0309,0.0309,0.0308,0.0308,0,-0.0747,-0.0779,-0.0788,-0.0815,-0.0855,-0.0815,-0.0826,-0.0783,-0.0719,-0.0689,-0.0569,-0.0504,-0.0316,-0.0166,-0.0016,0.0213,0.0191,0.0355,0.0399,0.0421,0.0428,0.0613,0.0666,0.0314,0.0313,0.0312,0.0311,0,-0.0816,-0.0823,-0.0876,-0.0888,-0.0893,-0.0919,-0.0904,-0.0902,-0.0827,-0.0781,-0.0757,-0.0582,-0.0375,-0.0168,0.0071,0.0208,0.0523,0.049,0.0511,0.0554,0.0831,0.0878,0.1133,0.1237,0.0675,0.0677,0.0679,0,-0.0857,-0.0895,-0.0941,-0.0977,-0.0985,-0.1011,-0.1026,-0.0969,-0.0953,-0.0816,-0.0795,-0.0588,-0.0412,-0.0025,0.0245,0.0535,0.0654,0.0736,0.0713,0.0871,0.0956,0.099,0.1061,0.0809,0.0812,0.0814,0.0816,0,-0.093,-0.0945,-0.0988,-0.1069,-0.1103,-0.1137,-0.1142,-0.1144,-0.1055,-0.0965,-0.0805,-0.0649,-0.0271,0.0094,0.0466,0.0637,0.0868,0.0794,0.0958,0.1084,0.1137,0.1249,0.0692,0.0838,0.0836,0.0834,0.0833,0.0832,-0.0971,-0.1024,-0.1083,-0.1152,-0.12,-0.1238,-0.1239,-0.1189,-0.112,-0.0896,-0.0802,-0.0447,-0.0024,0.0518,0.0708,0.1118,0.1068,0.1238,0.1285,0.1309,0.1406,0.0899,0.1087,0.1087,0.1086,0.1086,0.1085,0,-0.1018,-0.1078,-0.1159,-0.1235,-0.1294,-0.1295,-0.1293,-0.121,-0.1077,-0.0784,-0.0556,0.0003,0.0456,0.0867,0.1374,0.1598,0.1638,0.1706,0.1766,0.1817,0.1383,0.1384,0.1644,0.1644,0.1644,0.1644,0.1644,0.1644,-0.1044,-0.1132,-0.1179,-0.1289,-0.1337,-0.1351,-0.1331,-0.1125,-0.0884,-0.0359,0.0068,0.0358,0.0839,0.1531,0.2003,0.2047,0.2235,0.222,0.232,0.2012,0.1971,0.1932,0.1949,0.2324,0.2324,0.2749,0.2753,0.2756]}],[{"header":{"parameterUnit":"m.s-1","parameterCategory":2,"la1":30.2991,"la2":30.254,"lo1":-89.0895,"lo2":-89.0444,"dy":0.0017,"dx":0.0017,"nx":28,"ny":28,"refTime":"2025-03-07T03:00:00:Z","depth":"2","parameterNumber":2,"parameterNumberName":"U-component_of_CURRENTS"},"data":[0,0,0,0,0,0,0,0,0,0,0,0,0,0,0,0,0,0,0,0,0,0,0,0,0,0,0,0,0,0,0,0,0,0,0,0,0,0,0,0,0,0,0,0,0,0,0,0,0,0,0,0,0,0,0,0,0,0,-0.2587,-0.2587,0,-0.2621,-0.2621,-0.2622,-0.2604,-0.2603,-0.2602,-0.2602,-0.2592,-0.2592,-0.2592,0,0,0,0,0,0,0,0,0,0,0,0,0,-0.2504,-0.2506,-0.2587,-0.2587,-0.2588,-0.2621,-0.2621,-0.2622,-0.2604,-0.2603,-0.2602,-0.2601,-0.2592,-0.2592,-0.2592,0,0,0,0,0,0,0,0,0,0,0,0,0,-0.2537,-0.2506,-0.2587,-0.2585,-0.2585,-0.2621,-0.2621,-0.2622,-0.2604,-0.2603,-0.2602,-0.2601,-0.2591,-0.2592,-0.2593,-0.2617,0,0,-0.2594,-0.2594,0,0,0,0,0,0,0,0,-0.2535,-0.254,-0.2585,-0.2585,-0.2586,-0.2609,-0.2589,-0.2619,-0.2604,-0.2594,-0.2602,-0.26,-0.2596,-0.2596,-0.2602,-0.2616,-0.2616,-0.2594,-0.2595,-0.2595,-0.2595,0,0,0,0,0,0,0,-0.2533,-0.2538,-0.2598,-0.2585,-0.2586,-0.2583,-0.2586,-0.2594,-0.2597,-0.2595,-0.2594,-0.2603,-0.2595,-0.2601,-0.2601,-0.2615,-0.2594,-0.2595,-0.2595,-0.2595,-0.2645,-0.2646,0,0,0,0,0,0,-0.2536,-0.2536,-0.2597,-0.2599,-0.256,-0.2585,-0.2588,-0.2601,-0.2598,-0.2598,-0.2604,-0.2602,-0.2601,-0.2601,-0.2601,-0.2628,-0.2595,-0.2595,-0.2596,-0.2644,-0.2646,-0.2647,0,0,0,0,0,0,-0.2534,-0.2541,-0.2595,-0.257,-0.2577,-0.2588,-0.2601,-0.2602,-0.2608,-0.2606,-0.2604,-0.2609,-0.26,-0.26,-0.2612,-0.2627,-0.2596,-0.2596,-0.2643,-0.2645,-0.2646,-0.2683,0,0,0,0,0,0,-0.2531,-0.254,-0.2546,-0.2571,-0.2579,-0.2621,-0.2603,-0.2603,-0.2616,-0.2614,-0.261,-0.2608,-0.2599,-0.2612,-0.2613,-0.2628,-0.2597,-0.2642,-0.2644,-0.2646,-0.2681,-0.2686,-0.269,0,0,0,0,0,-0.2528,-0.2542,-0.2547,-0.2554,-0.2589,-0.2622,-0.2626,-0.2627,-0.2617,-0.2627,-0.2623,-0.2608,-0.2624,-0.2613,-0.2614,-0.2629,-0.2641,-0.2643,-0.2645,-0.2678,-0.2685,-0.269,0,0,0,0,0,0,-0.2505,-0.2543,-0.2548,-0.2571,-0.2597,-0.262,-0.2627,-0.2633,-0.2639,-0.2633,-0.2623,-0.2622,-0.264,-0.2632,-0.2621,-0.265,-0.263,-0.2632,-0.2654,-0.266,-0.2665,-0.2656,-0.2597,0,0,0,0,0,-0.2507,-0.2524,-0.2562,-0.2577,-0.2592,-0.2611,-0.2623,-0.2632,-0.2643,-0.2644,-0.2645,-0.2644,-0.2652,-0.2653,-0.266,-0.2677,-0.265,-0.2687,-0.2692,-0.2696,-0.269,-0.2668,-0.267,-0.2654,-0.2654,-0.2654,0,0,-0.25,-0.2523,-0.2532,-0.2574,-0.259,-0.262,-0.2615,-0.264,-0.2661,-0.2643,-0.2662,-0.2664,-0.2662,-0.2681,-0.2688,-0.2674,-0.2687,-0.2699,-0.2702,-0.2694,-0.267,-0.2672,-0.2673,-0.2655,-0.2655,-0.2655,0,0,-0.2501,-0.252,-0.2539,-0.2568,-0.2605,-0.2624,-0.2634,-0.2667,-0.2674,-0.2702,-0.2692,-0.27,-0.2716,-0.2714,-0.2715,-0.2751,-0.2716,-0.2758,-0.277,-0.2749,-0.2749,-0.2749,-0.2715,-0.2711,-0.2755,-0.2755,-0.2755,0,-0.2492,-0.2522,-0.2548,-0.2579,-0.2601,-0.2628,-0.2656,-0.2678,-0.2708,-0.2713,-0.2711,-0.2728,-0.273,-0.2741,-0.2756,-0.276,-0.2737,-0.2748,-0.2753,-0.2753,-0.2752,-0.2716,-0.2712,-0.2757,-0.2757,-0.2757,-0.2757,0,-0.251,-0.2538,-0.2552,-0.2599,-0.2628,-0.2656,-0.2698,-0.2721,-0.2734,-0.2749,-0.2767,-0.277,-0.2772,-0.2783,-0.2782,-0.2786,-0.2767,-0.2764,-0.2735,-0.2755,-0.2717,-0.2712,-0.276,-0.276,-0.2759,-0.2759,0,0,-0.2472,-0.255,-0.2553,-0.2577,-0.2641,-0.2664,-0.2707,-0.2744,-0.2758,-0.2785,-0.2794,-0.2815,-0.2808,-0.2809,-0.2807,-0.2795,-0.2778,-0.2781,-0.2779,-0.2739,-0.2719,-0.2632,-0.2618,-0.2775,-0.2774,-0.2774,-0.2692,0,-0.2473,-0.2527,-0.2569,-0.2614,-0.2643,-0.2689,-0.2724,-0.2762,-0.2786,-0.2805,-0.2809,-0.282,-0.2821,-0.2821,-0.2811,-0.2795,-0.2768,-0.28,-0.2711,-0.2708,-0.2622,-0.261,-0.243,-0.2335,-0.2687,-0.2686,-0.2686,0,-0.2468,-0.2507,-0.2553,-0.2619,-0.2635,-0.2667,-0.2713,-0.2751,-0.2792,-0.2808,-0.2819,-0.2825,-0.2826,-0.2818,-0.2777,-0.2798,-0.2758,-0.2735,-0.2731,-0.263,-0.2611,-0.2373,-0.2312,-0.2677,-0.2677,-0.2678,-0.2679,0,-0.241,-0.2488,-0.2519,-0.2545,-0.2629,-0.2649,-0.2688,-0.274,-0.2764,-0.2803,-0.2813,-0.2819,-0.2811,-0.278,-0.2746,-0.2759,-0.2686,-0.2694,-0.2569,-0.2562,-0.2379,-0.2356,-0.264,-0.264,-0.264,-0.264,-0.2641,0,-0.2386,-0.2406,-0.2494,-0.2511,-0.2538,-0.2613,-0.2638,-0.2681,-0.2735,-0.2748,-0.2799,-0.2792,-0.2801,-0.2769,-0.2737,-0.263,-0.267,-0.2555,-0.253,-0.2387,-0.2367,-0.2645,-0.2647,-0.2637,-0.2638,-0.2639,-0.2639,0,-0.2306,-0.2372,-0.2405,-0.2489,-0.251,-0.2524,-0.2601,-0.2619,-0.2687,-0.2703,-0.2714,-0.276,-0.2713,-0.2701,-0.2643,-0.2594,-0.2521,-0.2467,-0.2295,-0.225,-0.2412,-0.2417,-0.2315,-0.2311,-0.2307,-0.2305,-0.2302,0,-0.2267,-0.2279,-0.2359,-0.2372,-0.2404,-0.2446,-0.247,-0.2567,-0.2591,-0.2663,-0.2656,-0.2648,-0.2594,-0.2492,-0.2407,-0.2305,-0.2404,-0.2092,-0.2082,-0.239,-0.2377,-0.2387,-0.2396,-0.1853,-0.1848,-0.1843,-0.1839,0,-0.2176,-0.2207,-0.2234,-0.2264,-0.2291,-0.2322,-0.2371,-0.2387,-0.2489,-0.2505,-0.2501,-0.2467,-0.2378,-0.219,-0.2084,-0.2011,-0.2102,-0.1991,-0.2336,-0.1974,-0.1951,-0.194,-0.1965,-0.1797,-0.1801,-0.1804,-0.1807,-0.1808,-0.2087,-0.2079,-0.2116,-0.2127,-0.2161,-0.2169,-0.2139,-0.2206,-0.2213,-0.2197,-0.2274,-0.2154,-0.2121,-0.1843,-0.1735,-0.1654,-0.1799,-0.1728,-0.1745,-0.1765,-0.1737,-0.171,-0.1505,-0.1507,-0.1509,-0.1511,-0.1513,0,-0.196,-0.1967,-0.1975,-0.1984,-0.1958,-0.2025,-0.2039,-0.1976,-0.1923,-0.194,-0.1897,-0.1675,-0.1537,-0.1509,-0.1308,-0.1267,-0.127,-0.1222,-0.1233,-0.1275,-0.1312,-0.1263,-0.0903,-0.0902,-0.09,-0.0898,0,0,-0.1895,-0.1851,-0.1854,-0.1766,-0.1769,-0.167,-0.1637,-0.1569,-0.1532,-0.143,-0.1367,-0.1449,-0.1456,-0.1187,-0.1118,-0.0974,-0.1114,-0.092,-0.1408,-0.1461,-0.1496,-0.1598,-0.1568,0,0,0,0,0]},{"header":{"parameterUnit":"m.s-1","parameterCategory":2,"la1":30.2991,"la2":30.254,"lo1":-89.0895,"lo2":-89.0444,"dy":0.0017,"dx":0.0017,"nx":28,"ny":28,"refTime":"2025-03-07T03:00:00:Z","depth":"2","parameterNumber":3,"parameterNumberName":"V-component_of_CURRENTS"},"data":[0,0,0,0,0,0,0,0,0,0,0,0,0,0,0,0,0,0,0,0,0,0,0,0,0,0,0,0,0,0,0,0,0,0,0,0,0,0,0,0,0,0,0,0,0,0,0,0,0,0,0,0,0,0,0,0,0,0,-0.0348,-0.0347,0,-0.0275,-0.0274,-0.0273,-0.0219,-0.0219,-0.0218,-0.0218,-0.0113,-0.011,-0.0108,0,0,0,0,0,0,0,0,0,0,0,0,0,-0.0383,-0.0383,-0.0348,-0.0347,-0.0346,-0.0275,-0.0274,-0.0273,-0.0219,-0.0219,-0.0218,-0.0218,-0.0114,-0.0111,-0.0108,0,0,0,0,0,0,0,0,0,0,0,0,0,-0.0344,-0.0383,-0.0348,-0.0312,-0.0308,-0.0276,-0.0274,-0.0273,-0.0219,-0.0219,-0.0218,-0.0218,-0.0114,-0.0111,-0.0107,-0.0095,0,0,-0.0096,-0.0094,0,0,0,0,0,0,0,0,-0.0346,-0.0342,-0.0318,-0.0314,-0.031,-0.0257,-0.0248,-0.0212,-0.0219,-0.0251,-0.0218,-0.0217,-0.0159,-0.0152,-0.0138,-0.009,-0.0086,-0.0096,-0.0093,-0.0092,-0.0091,0,0,0,0,0,0,0,-0.0349,-0.0345,-0.0318,-0.0317,-0.0312,-0.028,-0.0274,-0.0241,-0.0208,-0.0249,-0.0245,-0.0239,-0.0156,-0.0142,-0.0135,-0.0084,-0.0096,-0.0092,-0.009,-0.0089,-0.001,-0.001,0,0,0,0,0,0,-0.0364,-0.0348,-0.032,-0.0316,-0.0328,-0.028,-0.0273,-0.0273,-0.0208,-0.0199,-0.024,-0.0237,-0.0148,-0.0139,-0.0131,-0.0107,-0.0092,-0.0088,-0.0086,-0.001,-0.001,-0.001,0,0,0,0,0,0,-0.0365,-0.0363,-0.0323,-0.0331,-0.0323,-0.0281,-0.028,-0.0272,-0.0257,-0.0202,-0.0191,-0.0233,-0.0147,-0.0136,-0.0102,-0.0103,-0.0087,-0.0083,-0.001,-0.001,-0.001,-0.0063,0,0,0,0,0,0,-0.0367,-0.0364,-0.037,-0.0332,-0.0324,-0.0312,-0.0281,-0.0271,-0.0255,-0.025,-0.0193,-0.0183,-0.0146,-0.0108,-0.0098,-0.0097,-0.008,-0.0009,-0.001,-0.001,-0.0061,-0.0065,-0.0069,0,0,0,0,0,-0.0368,-0.0384,-0.0371,-0.0367,-0.0334,-0.0313,-0.0306,-0.0271,-0.0255,-0.0254,-0.0212,-0.0184,-0.0102,-0.0105,-0.0093,-0.0092,-0.0009,-0.001,-0.001,-0.006,-0.0064,-0.0068,0,0,0,0,0,0,-0.0403,-0.0378,-0.0364,-0.0371,-0.0346,-0.0304,-0.0301,-0.0277,-0.0243,-0.0238,-0.0184,-0.0171,-0.0142,-0.0111,-0.0115,-0.007,-0.0052,-0.005,-0.0094,-0.0098,-0.0101,-0.0115,-0.0077,0,0,0,0,0,-0.0414,-0.0418,-0.0386,-0.0391,-0.0383,-0.0343,-0.033,-0.0308,-0.0273,-0.0257,-0.0216,-0.0173,-0.0135,-0.0113,-0.0078,-0.0053,-0.0012,-0.0045,-0.0048,-0.0052,-0.0055,0.0007,0.0009,-0.0011,-0.0011,-0.0011,0,0,-0.0428,-0.0416,-0.0417,-0.0399,-0.0377,-0.0373,-0.0334,-0.0321,-0.0312,-0.0251,-0.0228,-0.0186,-0.0132,-0.0104,-0.0088,-0.0077,-0.0025,-0.0052,-0.0055,-0.0057,0.0007,0.0009,0.0011,-0.0011,-0.0011,-0.0011,0,0,-0.0464,-0.0449,-0.0464,-0.045,-0.0426,-0.0399,-0.0399,-0.036,-0.0337,-0.031,-0.0263,-0.0221,-0.017,-0.0125,-0.0097,-0.01,-0.0049,-0.0093,-0.0116,-0.0056,-0.0054,-0.0051,0.0001,0.0009,-0.0091,-0.0091,-0.0091,0,-0.0482,-0.0497,-0.0465,-0.0476,-0.0468,-0.0416,-0.0427,-0.0396,-0.035,-0.0329,-0.0313,-0.0221,-0.0178,-0.0128,-0.0129,-0.0107,-0.0069,-0.0105,-0.0061,-0.0057,-0.0054,-0.0,0.0009,-0.0094,-0.0093,-0.0093,-0.0093,0,-0.0527,-0.0537,-0.0544,-0.0539,-0.0525,-0.0527,-0.0483,-0.0462,-0.0426,-0.0388,-0.0335,-0.0269,-0.0211,-0.0192,-0.0161,-0.0115,-0.0095,-0.0075,-0.0051,-0.0055,0.0002,0.0012,-0.0097,-0.0097,-0.0096,-0.0095,0,0,-0.0574,-0.0578,-0.058,-0.0589,-0.056,-0.0555,-0.0535,-0.0499,-0.048,-0.0424,-0.0391,-0.0319,-0.0273,-0.0239,-0.0186,-0.0134,-0.0076,-0.0102,-0.0097,-0.0053,0.0054,0.0086,0.0101,-0.0048,-0.0047,-0.0046,0.0083,0,-0.0618,-0.0661,-0.0641,-0.0665,-0.0681,-0.0627,-0.0615,-0.0572,-0.0518,-0.0471,-0.0386,-0.0339,-0.0292,-0.0264,-0.0202,-0.0109,-0.0051,-0.0113,0.0054,0.0059,0.0086,0.0113,0.0089,0.0203,0.0093,0.0095,0.0097,0,-0.0669,-0.0691,-0.0734,-0.0733,-0.0732,-0.0733,-0.0693,-0.0672,-0.0587,-0.0544,-0.0468,-0.0399,-0.031,-0.0275,-0.0108,-0.0151,-0.0056,0.0018,0.0025,0.0081,0.0111,0.019,0.0227,0.0115,0.0113,0.0112,0.0111,0,-0.0727,-0.0751,-0.0789,-0.0791,-0.0782,-0.078,-0.0764,-0.0698,-0.0675,-0.0586,-0.0553,-0.0434,-0.0371,-0.0242,-0.0083,-0.0095,0.0102,0.011,0.0232,0.0235,0.026,0.0263,0.023,0.023,0.0229,0.0229,0.0229,0,-0.0786,-0.0813,-0.0822,-0.0844,-0.0877,-0.0842,-0.0846,-0.0806,-0.0742,-0.071,-0.0597,-0.0535,-0.0361,-0.0224,-0.0087,0.0111,0.0109,0.0237,0.0276,0.0241,0.024,0.0197,0.0192,0.0234,0.0233,0.0232,0.0231,0,-0.0846,-0.0853,-0.0897,-0.0907,-0.0911,-0.0933,-0.0916,-0.091,-0.0839,-0.079,-0.0767,-0.0605,-0.0422,-0.0235,-0.0012,0.0108,0.0288,0.0358,0.0302,0.0332,0.0378,0.0368,0.0503,0.0505,0.0507,0.0509,0.051,0,-0.0882,-0.0915,-0.0954,-0.0986,-0.0994,-0.1015,-0.1027,-0.0972,-0.0953,-0.0823,-0.08,-0.0618,-0.0464,-0.0121,0.011,0.0365,0.0359,0.0484,0.0459,0.0385,0.0409,0.0396,0.0384,0.0473,0.0474,0.0475,0.0476,0,-0.0945,-0.0958,-0.0995,-0.1067,-0.1098,-0.1125,-0.1128,-0.1127,-0.1042,-0.0962,-0.0819,-0.0684,-0.0358,-0.0072,0.0245,0.0388,0.0437,0.0508,0.0469,0.04,0.0365,0.0386,0.0374,0.0483,0.0482,0.0482,0.0481,0.0481,-0.0981,-0.1027,-0.1079,-0.114,-0.1182,-0.1215,-0.1222,-0.1187,-0.1129,-0.098,-0.0843,-0.0597,-0.0341,0.0123,0.0345,0.0542,0.0532,0.0585,0.0579,0.0573,0.0539,0.0509,0.0647,0.0647,0.0647,0.0647,0.0647,0,-0.1024,-0.1076,-0.1146,-0.1214,-0.1268,-0.1269,-0.127,-0.1236,-0.1147,-0.0974,-0.0789,-0.0466,-0.0133,0.0128,0.0448,0.0638,0.0611,0.0663,0.0591,0.0584,0.0577,0.0539,0.065,0.0651,0.0651,0.0652,0,0,-0.1048,-0.1125,-0.1164,-0.1264,-0.131,-0.1338,-0.1327,-0.1244,-0.1113,-0.0916,-0.0713,-0.0449,-0.0125,0.0105,0.0341,0.0505,0.0491,0.0517,0.0496,0.0376,0.0367,0.0516,0.0449,0,0,0,0,0]}],[{"header":{"parameterUnit":"m.s-1","parameterCategory":2,"la1":30.2991,"la2":30.254,"lo1":-89.0895,"lo2":-89.0444,"dy":0.0017,"dx":0.0017,"nx":28,"ny":28,"refTime":"2025-03-07T03:00:00:Z","depth":"4","parameterNumber":2,"parameterNumberName":"U-component_of_CURRENTS"},"data":[0,0,0,0,0,0,0,0,0,0,0,0,0,0,0,0,0,0,0,0,0,0,0,0,0,0,0,0,0,0,0,0,0,0,0,0,0,0,0,0,0,0,0,0,0,0,0,0,0,0,0,0,0,0,0,0,0,0,-0.1806,-0.1807,0,-0.1881,-0.1881,-0.1882,-0.1928,-0.1929,-0.1929,-0.1929,-0.2006,-0.2007,-0.2009,0,0,0,0,0,0,0,0,0,0,0,0,0,-0.1703,-0.1704,-0.1806,-0.1807,-0.1808,-0.1881,-0.1881,-0.1882,-0.1928,-0.1929,-0.1929,-0.193,-0.2005,-0.2007,-0.2009,0,0,0,0,0,0,0,0,0,0,0,0,0,-0.1758,-0.1705,-0.1806,-0.1841,-0.1845,-0.188,-0.1882,-0.1883,-0.1928,-0.1929,-0.1929,-0.193,-0.2004,-0.2007,-0.2009,-0.2013,0,0,-0.2017,-0.2018,0,0,0,0,0,0,0,0,-0.1755,-0.1761,-0.1835,-0.1839,-0.1843,-0.1897,-0.1873,-0.1927,-0.1928,-0.1895,-0.1929,-0.193,-0.197,-0.1976,-0.1986,-0.2016,-0.2019,-0.2017,-0.2019,-0.202,-0.202,0,0,0,0,0,0,0,-0.1751,-0.1758,-0.1834,-0.1836,-0.1841,-0.1853,-0.1861,-0.1883,-0.1927,-0.1898,-0.1902,-0.1913,-0.1973,-0.1983,-0.1988,-0.202,-0.2017,-0.2019,-0.2021,-0.2022,-0.2133,-0.2134,0,0,0,0,0,0,-0.1745,-0.1755,-0.1832,-0.1836,-0.1802,-0.1855,-0.1864,-0.1878,-0.1927,-0.1935,-0.1912,-0.1914,-0.1979,-0.1985,-0.1991,-0.2071,-0.202,-0.2022,-0.2023,-0.2131,-0.2133,-0.2135,0,0,0,0,0,0,-0.1742,-0.1751,-0.1829,-0.1798,-0.1809,-0.1856,-0.1871,-0.1879,-0.1921,-0.1938,-0.1946,-0.195,-0.1979,-0.1987,-0.2039,-0.2071,-0.2023,-0.2025,-0.213,-0.2132,-0.2134,-0.2183,0,0,0,0,0,0,-0.1739,-0.175,-0.1772,-0.1798,-0.1811,-0.187,-0.1871,-0.188,-0.1926,-0.1931,-0.1972,-0.1978,-0.1981,-0.2035,-0.2041,-0.2074,-0.2027,-0.2128,-0.2131,-0.2133,-0.218,-0.2187,-0.2193,0,0,0,0,0,-0.1735,-0.1758,-0.1773,-0.1783,-0.1836,-0.1871,-0.188,-0.1913,-0.1927,-0.1952,-0.1982,-0.1979,-0.2057,-0.2039,-0.2045,-0.2079,-0.2126,-0.213,-0.2133,-0.2177,-0.2185,-0.2193,0,0,0,0,0,0,-0.1725,-0.1765,-0.1782,-0.1818,-0.1853,-0.188,-0.1909,-0.1931,-0.1974,-0.1988,-0.1999,-0.2008,-0.2064,-0.2066,-0.2046,-0.2119,-0.209,-0.2095,-0.2121,-0.2129,-0.2136,-0.2126,-0.2029,0,0,0,0,0,-0.1733,-0.1762,-0.1799,-0.183,-0.185,-0.1886,-0.1911,-0.1936,-0.197,-0.1991,-0.2021,-0.2051,-0.2078,-0.21,-0.2124,-0.2166,-0.2142,-0.2191,-0.2198,-0.2203,-0.22,-0.2196,-0.2201,-0.2146,-0.2145,-0.2145,0,0,-0.1739,-0.1765,-0.1784,-0.1831,-0.1861,-0.1897,-0.1904,-0.1951,-0.1988,-0.1991,-0.2059,-0.208,-0.2095,-0.2142,-0.2167,-0.2152,-0.2207,-0.2208,-0.2212,-0.2206,-0.22,-0.2205,-0.221,-0.2148,-0.2147,-0.2147,0,0,-0.1753,-0.1789,-0.1816,-0.185,-0.1902,-0.1925,-0.1946,-0.1996,-0.2029,-0.2089,-0.2099,-0.2137,-0.2189,-0.22,-0.2211,-0.2268,-0.2242,-0.2285,-0.2312,-0.2308,-0.2312,-0.2315,-0.2284,-0.2284,-0.2288,-0.2288,-0.2288,0,-0.1762,-0.1798,-0.1831,-0.1865,-0.1897,-0.1941,-0.1979,-0.2017,-0.2081,-0.2107,-0.2121,-0.2191,-0.2211,-0.2249,-0.2273,-0.2282,-0.2267,-0.228,-0.2315,-0.2318,-0.232,-0.2288,-0.2287,-0.229,-0.229,-0.229,-0.229,0,-0.1784,-0.1829,-0.1849,-0.1906,-0.1946,-0.1988,-0.204,-0.2091,-0.2137,-0.2167,-0.2231,-0.2255,-0.2291,-0.2309,-0.2313,-0.2347,-0.2326,-0.2323,-0.229,-0.2329,-0.2292,-0.229,-0.2294,-0.2293,-0.2293,-0.2292,0,0,-0.1757,-0.1848,-0.1859,-0.1895,-0.1974,-0.2004,-0.2074,-0.2135,-0.2177,-0.2239,-0.2282,-0.2335,-0.2348,-0.236,-0.237,-0.2374,-0.2383,-0.2364,-0.2363,-0.2324,-0.2358,-0.2203,-0.2185,-0.239,-0.239,-0.2391,-0.2321,0,-0.1767,-0.1833,-0.1879,-0.1951,-0.1988,-0.2054,-0.2111,-0.2175,-0.2229,-0.2284,-0.2314,-0.2361,-0.2367,-0.239,-0.2398,-0.2394,-0.2383,-0.24,-0.2334,-0.2331,-0.2182,-0.218,-0.2392,-0.232,-0.232,-0.2319,-0.2319,0,-0.1762,-0.1812,-0.1882,-0.1974,-0.1998,-0.2052,-0.2141,-0.2198,-0.2277,-0.2318,-0.2363,-0.2388,-0.242,-0.2415,-0.2408,-0.2422,-0.2394,-0.2377,-0.2374,-0.2208,-0.2173,-0.2277,-0.2316,-0.2316,-0.2316,-0.2316,-0.2317,0,-0.1706,-0.1808,-0.1865,-0.1899,-0.201,-0.206,-0.2123,-0.2211,-0.2256,-0.2338,-0.2368,-0.2409,-0.2427,-0.2417,-0.2394,-0.2408,-0.2361,-0.237,-0.2193,-0.2181,-0.2321,-0.2319,-0.2343,-0.2343,-0.2343,-0.2343,-0.2343,0,-0.1675,-0.1724,-0.1852,-0.1882,-0.1951,-0.2042,-0.2114,-0.2181,-0.2268,-0.2299,-0.2379,-0.2384,-0.2431,-0.2414,-0.2391,-0.2271,-0.2353,-0.218,-0.2149,-0.2343,-0.2344,-0.2319,-0.2317,-0.234,-0.2341,-0.2342,-0.2342,0,-0.1594,-0.1682,-0.1753,-0.1883,-0.1926,-0.1975,-0.21,-0.214,-0.2239,-0.2279,-0.2304,-0.2368,-0.2333,-0.2341,-0.2309,-0.2236,-0.2161,-0.2096,-0.2282,-0.2266,-0.1984,-0.1986,-0.1885,-0.1878,-0.1873,-0.1869,-0.1865,0,-0.1552,-0.1584,-0.173,-0.1771,-0.1836,-0.1927,-0.198,-0.2106,-0.214,-0.2236,-0.223,-0.2245,-0.226,-0.2074,-0.2114,-0.2028,-0.2007,-0.1956,-0.1985,-0.1954,-0.1936,-0.1946,-0.1955,-0.1857,-0.1856,-0.1854,-0.1853,0,-0.1465,-0.1535,-0.1592,-0.1678,-0.175,-0.1813,-0.19,-0.1909,-0.2029,-0.2138,-0.2082,-0.2044,-0.1992,-0.1951,-0.189,-0.1841,-0.199,-0.1901,-0.1913,-0.194,-0.192,-0.1909,-0.1923,-0.1835,-0.1837,-0.1839,-0.184,0,-0.1396,-0.1414,-0.15,-0.1556,-0.1641,-0.1664,-0.1732,-0.1758,-0.1804,-0.1918,-0.1887,-0.1903,-0.1962,-0.185,-0.18,-0.1731,-0.1708,-0.1659,-0.1683,-0.1703,-0.1676,-0.1627,-0.1406,0,0,0,0,0,-0.1317,-0.1321,-0.1367,-0.1424,-0.1502,-0.1543,-0.1656,-0.1727,-0.1843,-0.175,-0.1814,-0.1754,-0.1669,-0.1684,-0.1569,-0.1718,-0.172,-0.1578,-0.168,-0.1735,-0.1756,-0.1741,0,0,0,0,0,0,-0.1264,-0.1304,-0.1317,-0.1293,-0.1301,-0.1365,-0.1426,-0.1513,-0.1475,-0.1594,-0.1551,-0.1637,-0.1577,-0.1689,-0.1524,-0.1527,-0.1553,-0.1602,-0.1597,-0.1723,-0.1742,-0.1759,-0.1751,0,0,0,0,0]},{"header":{"parameterUnit":"m.s-1","parameterCategory":2,"la1":30.2991,"la2":30.254,"lo1":-89.0895,"lo2":-89.0444,"dy":0.0017,"dx":0.0017,"nx":28,"ny":28,"refTime":"2025-03-07T03:00:00:Z","depth":"4","parameterNumber":3,"parameterNumberName":"V-component_of_CURRENTS"},"data":[0,0,0,0,0,0,0,0,0,0,0,0,0,0,0,0,0,0,0,0,0,0,0,0,0,0,0,0,0,0,0,0,0,0,0,0,0,0,0,0,0,0,0,0,0,0,0,0,0,0,0,0,0,0,0,0,0,0,-0.0279,-0.0278,0,-0.0234,-0.0233,-0.0233,-0.0199,-0.0199,-0.0199,-0.0198,-0.0122,-0.012,-0.0118,0,0,0,0,0,0,0,0,0,0,0,0,0,-0.0293,-0.0294,-0.0279,-0.0278,-0.0278,-0.0234,-0.0233,-0.0233,-0.0199,-0.0199,-0.0199,-0.0198,-0.0122,-0.012,-0.0118,0,0,0,0,0,0,0,0,0,0,0,0,0,-0.0271,-0.0294,-0.0279,-0.0257,-0.0254,-0.0234,-0.0233,-0.0232,-0.0199,-0.0199,-0.0199,-0.0198,-0.0123,-0.012,-0.0118,-0.0106,0,0,-0.0109,-0.0108,0,0,0,0,0,0,0,0,-0.0272,-0.027,-0.026,-0.0258,-0.0256,-0.0223,-0.021,-0.0189,-0.0199,-0.0219,-0.0198,-0.0198,-0.0154,-0.0148,-0.0139,-0.0103,-0.0099,-0.0109,-0.0107,-0.0106,-0.0105,0,0,0,0,0,0,0,-0.0274,-0.0272,-0.026,-0.026,-0.0257,-0.0235,-0.0232,-0.0206,-0.0187,-0.0217,-0.0215,-0.0212,-0.0152,-0.0142,-0.0137,-0.0098,-0.0109,-0.0106,-0.0105,-0.0104,-0.0049,-0.005,0,0,0,0,0,0,-0.0284,-0.0273,-0.0261,-0.0259,-0.0265,-0.0235,-0.0231,-0.0233,-0.0188,-0.0181,-0.0212,-0.0211,-0.0147,-0.014,-0.0134,-0.0121,-0.0106,-0.0103,-0.0102,-0.0049,-0.0049,-0.005,0,0,0,0,0,0,-0.0285,-0.0284,-0.0263,-0.0266,-0.0262,-0.0236,-0.0237,-0.0232,-0.0225,-0.0185,-0.0177,-0.0211,-0.0146,-0.0138,-0.0115,-0.0118,-0.0102,-0.0099,-0.0049,-0.0049,-0.005,-0.0093,0,0,0,0,0,0,-0.0286,-0.0284,-0.0292,-0.0267,-0.0262,-0.026,-0.0237,-0.0231,-0.0224,-0.0221,-0.0181,-0.0173,-0.0146,-0.012,-0.0113,-0.0114,-0.0097,-0.0049,-0.0049,-0.0049,-0.0091,-0.0094,-0.0097,0,0,0,0,0,-0.0286,-0.03,-0.0293,-0.0291,-0.0272,-0.026,-0.0256,-0.0235,-0.0225,-0.0227,-0.0197,-0.0175,-0.0117,-0.0118,-0.0109,-0.0109,-0.0048,-0.0049,-0.0049,-0.0089,-0.0094,-0.0097,0,0,0,0,0,0,-0.0311,-0.0297,-0.0289,-0.0298,-0.0284,-0.0255,-0.0257,-0.0241,-0.0219,-0.0217,-0.0176,-0.0167,-0.0149,-0.0124,-0.0126,-0.0096,-0.008,-0.0079,-0.0113,-0.0117,-0.012,-0.0127,-0.0095,0,0,0,0,0,-0.032,-0.0327,-0.0307,-0.0315,-0.0311,-0.0285,-0.0278,-0.0264,-0.0241,-0.0231,-0.0203,-0.0171,-0.0144,-0.0128,-0.0103,-0.0085,-0.0047,-0.008,-0.0084,-0.0087,-0.0087,-0.0026,-0.0024,-0.0051,-0.0051,-0.0051,0,0,-0.0332,-0.0326,-0.033,-0.0321,-0.0308,-0.0309,-0.028,-0.0276,-0.0273,-0.0226,-0.0215,-0.0184,-0.0143,-0.0124,-0.0114,-0.0103,-0.006,-0.0087,-0.009,-0.0089,-0.0026,-0.0023,-0.0021,-0.0052,-0.0052,-0.0052,0,0,-0.036,-0.0354,-0.0369,-0.0362,-0.035,-0.0332,-0.0334,-0.031,-0.0296,-0.0281,-0.0245,-0.0214,-0.018,-0.0144,-0.0122,-0.0128,-0.0083,-0.0126,-0.0142,-0.0083,-0.008,-0.0077,-0.0032,-0.0024,-0.0123,-0.0123,-0.0123,0,-0.0376,-0.039,-0.0371,-0.0382,-0.0381,-0.0346,-0.0358,-0.0339,-0.031,-0.0294,-0.0286,-0.0218,-0.0186,-0.0145,-0.0149,-0.0134,-0.0099,-0.0131,-0.0087,-0.0083,-0.0079,-0.0033,-0.0024,-0.0125,-0.0125,-0.0125,-0.0125,0,-0.0411,-0.0424,-0.0432,-0.0434,-0.0429,-0.0434,-0.0407,-0.0395,-0.0373,-0.0346,-0.0307,-0.0257,-0.0212,-0.0199,-0.0177,-0.0134,-0.0119,-0.0101,-0.0077,-0.0078,-0.003,-0.002,-0.0129,-0.0128,-0.0127,-0.0127,0,0,-0.0443,-0.0456,-0.046,-0.0471,-0.0458,-0.0457,-0.0449,-0.0426,-0.0413,-0.0375,-0.0349,-0.0296,-0.0259,-0.0232,-0.0191,-0.0142,-0.0087,-0.0116,-0.0112,-0.0072,0.0035,0.0017,0.0027,-0.0059,-0.0058,-0.0056,0.0055,0,-0.0477,-0.0516,-0.0507,-0.0534,-0.0549,-0.0516,-0.0512,-0.0484,-0.0446,-0.0411,-0.0343,-0.0308,-0.0273,-0.0252,-0.0195,-0.0117,-0.0061,-0.0119,0.0031,0.0035,0.002,0.0038,-0.0051,0.0063,0.0065,0.0067,0.0068,0,-0.0513,-0.0535,-0.0577,-0.0586,-0.0588,-0.0598,-0.0574,-0.0563,-0.0499,-0.0467,-0.0406,-0.0352,-0.0275,-0.0248,-0.0101,-0.0141,-0.0059,0.0006,0.0012,0.0018,0.0036,0.0068,0.0087,0.0085,0.0084,0.0083,0.0082,0,-0.0549,-0.0579,-0.0616,-0.0622,-0.0628,-0.0635,-0.0631,-0.0585,-0.057,-0.0501,-0.0474,-0.0373,-0.0323,-0.0206,-0.0078,-0.0086,0.0086,0.0097,0.0163,0.0163,0.0165,0.016,0.0209,0.0209,0.0209,0.0208,0.0208,0,-0.0584,-0.0613,-0.0642,-0.0663,-0.0701,-0.0683,-0.0697,-0.067,-0.0624,-0.0598,-0.0508,-0.0456,-0.031,-0.0195,-0.0078,0.0071,0.0094,0.0165,0.0194,0.0142,0.0134,0.0172,0.0166,0.0213,0.0212,0.0211,0.021,0,-0.0615,-0.0635,-0.0681,-0.071,-0.0723,-0.075,-0.0757,-0.0754,-0.0704,-0.0664,-0.0646,-0.0514,-0.0366,-0.0213,-0.0019,0.0064,0.0209,0.026,0.0186,0.0209,0.0246,0.0237,0.0341,0.0341,0.0342,0.0342,0.0342,0,-0.0632,-0.0663,-0.0726,-0.0762,-0.0782,-0.0816,-0.0836,-0.0804,-0.0787,-0.069,-0.0665,-0.0526,-0.0423,-0.0152,-0.0005,0.0215,0.0244,0.031,0.0282,0.0243,0.0262,0.0252,0.0242,0.0343,0.0343,0.0343,0.0343,0,-0.0662,-0.0692,-0.0731,-0.0812,-0.0855,-0.089,-0.0906,-0.0898,-0.0839,-0.0799,-0.0657,-0.0511,-0.0342,-0.0147,0.0019,0.0177,0.0257,0.0314,0.0314,0.0288,0.0247,0.0263,0.0253,0.0344,0.0344,0.0344,0.0344,0,-0.0681,-0.0721,-0.0782,-0.0845,-0.0907,-0.0937,-0.0943,-0.0899,-0.0869,-0.0746,-0.0701,-0.0503,-0.0388,-0.0165,-0.0006,0.0137,0.0169,0.0205,0.0211,0.0212,0.0131,0.0057,0.0128,0,0,0,0,0,-0.0691,-0.0739,-0.0808,-0.0874,-0.0936,-0.0966,-0.0974,-0.096,-0.0904,-0.0804,-0.0744,-0.0575,-0.0321,-0.0206,-0.0063,-0.0028,0.0166,0.0139,0.0204,0.035,0.0349,0.0274,0,0,0,0,0,0,-0.07,-0.077,-0.0806,-0.0881,-0.093,-0.0983,-0.099,-0.0953,-0.0879,-0.0801,-0.0658,-0.056,-0.0313,-0.0402,-0.0066,-0.0022,0.0033,0.0265,0.0268,0.0351,0.035,0.0349,0.0271,0,0,0,0,0]}]]